Location: Namasale
(1.5000°N, 32.6167°E)
Time: 02:25:55
(UTC+00:00)

Hubble Space Telescope - Pass Details

Date: 08 December 2021
Orbit: 535 x 538 km, 28.5° (Epoch: 24 January)

Event Time Altitude Azimuth Distance (km) Brightness Sun altitude
Rises 16:24:06 0° 243° (WSW) 2,673 6.6 -10.4°
Reaches altitude 10° 16:26:22 10° 246° (WSW) 1,781 5.0 -10.9°
Maximum altitude 16:30:29 71° 330° (NNW) 564 0.9 -11.8°
Enters shadow 16:33:25 18° 52° (NE) 1,335 2.2 -12.5°
